EW7063 Weather Reports


time (UTC)temp
C
wind
direction
speed
KPH
gust
KPH
rain 1hr
cm
rain 24hr
cm
rain mn
cm
humidity
%
barometer
mb
20260504215156 20 199 11.3 33.8 0.00 0.05 0.03 63 1005.4
20260504214654 20 206 8.0 27.4 0.00 0.05 0.03 63 1005.2
20260504214147 20 191 9.7 27.4 0.00 0.05 0.03 61 1005.2
20260504213643 20 225 9.7 27.4 0.00 0.05 0.03 60 1005.2
20260504213137 21 200 11.3 27.4 0.00 0.05 0.03 60 1005.0
20260504212907 21 207 11.3 24.1 0.00 0.05 0.03 57 1005.0
20260504212408 21 211 11.3 22.5 0.00 0.05 0.03 58 1004.8
20260504211636 21 216 9.7 20.9 0.00 0.05 0.03 59 1004.8
20260504211137 20 229 9.7 22.5 0.00 0.05 0.03 60 1004.8
20260504210638 20 172 9.7 29.0 0.00 0.05 0.03 59 1004.8
20260504210132 21 186 9.7 29.0 0.00 0.05 0.03 58 1005.0
20260504205634 21 234 9.7 37.0 0.00 0.05 0.03 57 1005.0
20260504205134 21 148 9.7 37.0 0.00 0.05 0.03 57 1005.2
20260504204632 21 178 11.3 30.6 0.00 0.05 0.03 58 1005.6
20260504204133 21 248 14.5 35.4 0.00 0.05 0.03 59 1005.7
20260504203903 20 265 14.5 35.4 0.00 0.05 0.03 57 1005.7
20260504203132 20 215 12.9 35.4 0.00 0.05 0.03 58 1005.6
20260504202636 20 234 11.3 29.0 0.00 0.05 0.03 57 1005.6
20260504202132 20 240 9.7 29.0 0.00 0.05 0.03 57 1005.6
20260504201633 20 263 9.7 25.7 0.00 0.05 0.03 58 1005.7
20260504201135 21 190 11.3 32.2 0.00 0.05 0.03 57 1005.7
20260504200629 21 288 9.7 32.2 0.00 0.05 0.03 58 1005.8
20260504200400 21 209 9.7 29.0 0.00 0.05 0.03 59 1006.0
20260504195900 20 223 11.3 29.0 0.00 0.05 0.03 60 1005.9
20260504195128 20 171 11.3 32.2 0.00 0.05 0.03 60 1006.0
20260504194900 20 171 12.9 32.2 0.00 0.05 0.03 61 1005.9
20260504194130 20 186 14.5 35.4 0.00 0.05 0.03 63 1006.1
20260504193629 21 248 11.3 35.4 0.00 0.05 0.03 62 1006.1
20260504193126 21 309 9.7 32.2 0.00 0.05 0.03 60 1006.3
20260504192628 20 175 11.3 33.8 0.00 0.05 0.03 63 1006.5
20260504192127 20 211 12.9 33.8 0.00 0.05 0.03 59 1006.6
20260504191625 21 202 12.9 35.4 0.00 0.05 0.03 60 1006.6
20260504191123 21 228 12.9 35.4 0.00 0.05 0.03 58 1006.6
20260504190623 21 265 12.9 33.8 0.00 0.05 0.03 60 1006.8
20260504190353 22 213 9.7 29.0 0.00 0.05 0.03 56 1006.7
20260504190237 22 244 9.7 29.0 0.00 0.05 0.03 56 1006.5
20260504185124 22 185 11.3 37.0 0.00 0.05 0.03 56 1006.4
20260504184623 22 222 12.9 38.6 0.00 0.05 0.03 60 1006.5
20260504184122 21 260 12.9 38.6 0.00 0.05 0.03 55 1006.7
20260504183616 21 160 12.9 32.2 0.00 0.05 0.03 60 1006.6
20260504183117 22 173 12.9 33.8 0.00 0.05 0.03 55 1006.6
20260504182616 22 255 12.9 33.8 0.00 0.05 0.03 59 1006.4
20260504182345 22 257 12.9 32.2 0.00 0.05 0.03 57 1006.3
20260504181614 22 190 11.3 37.0 0.00 0.05 0.03 55 1006.3
20260504181347 22 181 12.9 37.0 0.00 0.05 0.03 58 1006.2
20260504180841 22 248 11.3 41.8 0.00 0.05 0.03 58 1006.1
20260504180110 22 209 9.7 41.8 0.00 0.05 0.03 58 1006.0
20260504175611 22 202 9.7 29.0 0.00 0.05 0.03 57 1006.1
20260504175108 22 213 11.3 37.0 0.00 0.05 0.03 57 1006.1
20260504174606 22 200 9.7 37.0 0.00 0.05 0.03 55 1006.1
20260504174106 22 232 11.3 30.6 0.00 0.05 0.03 59 1006.2
20260504173603 21 245 12.9 30.6 0.00 0.05 0.03 61 1006.2
20260504173102 21 221 12.9 41.8 0.00 0.05 0.03 56 1006.2
20260504172834 21 212 12.9 41.8 0.00 0.05 0.03 60 1006.2
20260504172102 21 242 11.3 35.4 0.00 0.05 0.03 57 1006.3
20260504171602 21 256 6.4 24.1 0.00 0.05 0.03 65 1006.1
20260504171100 21 195 8.0 33.8 0.00 0.05 0.03 65 1006.3
20260504170828 21 200 11.3 35.4 0.00 0.05 0.03 62 1006.3
20260504151031 18 261 8.0 24.1 0.03 0.05 0.03 65 1007.3
20260504150524 17 207 8.0 24.1 0.03 0.05 0.03 65 1007.3
20260504141002 15 183 6.4 20.9 0.00 0.03 0.00 67 1007.6
20260504140503 15 232 6.4 25.7 0.00 0.03 0.00 66 1007.8
20260504130452 13 190 8.0 17.7 0.00 0.03 0.00 69 1008.2
20260504130224 13 182 8.0 17.7 0.00 0.03 0.00 70 1008.2
20260504120212 10 204 6.4 12.9 0.00 0.03 0.00 74 1008.4
20260504110426 8 226 6.4 14.5 0.00 0.03 0.00 75 1007.9
20260504100417 9 190 6.4 16.1 0.00 0.03 0.00 73 1008.4
20260504081903 10 241 6.4 17.7 0.00 0.03 0.00 69 1009.0
20260504081402 10 211 6.4 14.5 0.00 0.03 0.00 69 1009.0
20260504080902 10 202 6.4 12.9 0.00 0.03 0.00 69 1009.0
20260504080628 10 182 6.4 14.5 0.00 0.03 0.00 69 1009.1
20260504070345 10 221 9.7 22.5 0.00 0.03 0.00 65 1009.4
20260504050328 11 202 8.0 16.1 0.00 0.03 0.00 63 1010.8
20260504045824 11 188 8.0 17.7 0.00 0.03 0.00 64 1010.7
20260504045321 11 219 8.0 17.7 0.00 0.03 0.00 64 1010.7
20260504044822 11 203 8.0 16.1 0.00 0.03 0.00 64 1010.8
20260504044552 11 190 8.0 16.1 0.00 0.03 0.00 65 1010.8
20260504044058 11 192 6.4 17.7 0.00 0.03 0.00 65 1010.8
20260504043821 11 186 6.4 14.5 0.00 0.03 0.00 65 1010.8
20260504042817 11 199 8.0 17.7 0.00 0.03 0.00 65 1010.9
20260504042315 10 221 6.4 16.1 0.00 0.03 0.00 67 1011.0
20260504042046 10 198 6.4 12.9 0.00 0.03 0.00 68 1011.0
20260504041314 10 175 4.8 14.5 0.00 0.03 0.00 68 1011.0
20260504040815 10 166 6.4 14.5 0.00 0.03 0.00 69 1011.1
20260504040317 10 188 6.4 12.9 0.00 0.03 0.00 70 1011.1
20260504035812 10 198 6.4 12.9 0.00 0.03 0.03 71 1011.2
20260504035309 10 210 4.8 12.9 0.00 0.03 0.03 71 1011.2
20260504034808 10 190 4.8 11.3 0.00 0.03 0.03 71 1011.2
20260504034309 10 179 6.4 11.3 0.00 0.03 0.03 71 1011.3
20260504034042 10 178 8.0 14.5 0.00 0.03 0.03 71 1011.3
20260504033309 10 194 8.0 14.5 0.00 0.03 0.03 72 1011.4
20260504032804 10 172 8.0 12.9 0.00 0.03 0.03 71 1011.4
20260504032536 10 167 8.0 14.5 0.00 0.03 0.03 72 1011.4
20260504031804 10 182 8.0 14.5 0.00 0.03 0.03 72 1011.6
20260504031303 10 178 8.0 14.5 0.00 0.03 0.03 73 1011.7
20260504030803 10 163 6.4 14.5 0.00 0.03 0.03 73 1011.7
20260504030304 10 150 6.4 14.5 0.00 0.03 0.03 73 1011.8
20260504025759 10 175 6.4 11.3 0.00 0.03 0.03 73 1011.8
20260504025530 10 182 6.4 11.3 0.00 0.03 0.03 73 1011.9
20260504024757 10 165 6.4 11.3 0.00 0.03 0.03 73 1011.9
20260504024256 10 174 6.4 11.3 0.00 0.03 0.03 73 1012.0
20260504023757 10 158 6.4 12.9 0.00 0.03 0.03 74 1012.0
20260504023300 10 201 6.4 12.9 0.00 0.03 0.03 73 1012.0
20260504022752 10 176 8.0 16.1 0.00 0.03 0.03 73 1011.9
20260504022251 10 159 8.0 16.1 0.00 0.03 0.03 73 1012.0
20260504021751 10 142 8.0 14.5 0.00 0.03 0.03 73 1011.9
20260504021252 10 161 8.0 12.9 0.00 0.03 0.03 74 1011.9
20260504020751 9 159 8.0 14.5 0.00 0.03 0.03 73 1012.0
20260504020252 9 175 6.4 14.5 0.00 0.03 0.03 75 1012.1
20260504015748 9 150 6.4 12.9 0.00 0.03 0.03 76 1012.1
20260504015252 9 160 4.8 8.0 0.00 0.03 0.03 78 1012.0
20260504015247 9 172 6.4 11.3 0.00 0.03 0.03 77 1012.0
20260504014247 9 150 4.8 8.0 0.00 0.03 0.03 77 1012.0
20260504013745 9 150 4.8 8.0 0.00 0.03 0.03 78 1012.0
20260504013245 9 154 4.8 8.0 0.00 0.03 0.03 78 1012.0
20260504012740 9 162 3.2 6.4 0.00 0.03 0.03 79 1012.1
20260504012240 9 148 3.2 8.0 0.00 0.03 0.03 79 1012.1
20260504011740 9 151 4.8 9.7 0.00 0.03 0.03 80 1012.1
20260504011240 9 144 6.4 12.9 0.00 0.03 0.03 80 1012.0
20260504010739 9 132 4.8 12.9 0.00 0.03 0.03 82 1012.0
20260504010241 9 143 3.2 6.4 0.00 0.03 0.03 83 1012.1
20260504005737 9 142 4.8 9.7 0.00 0.03 0.03 83 1012.1
20260504005235 9 144 3.2 9.7 0.00 0.03 0.03 83 1012.1
20260504004734 8 129 3.2 9.7 0.00 0.03 0.03 84 1012.0
20260504004232 8 128 3.2 9.7 0.00 0.03 0.03 84 1012.0
20260504003732 8 132 1.6 6.4 0.00 0.03 0.03 84 1012.0
20260504003505 8 133 1.6 6.4 0.00 0.03 0.03 84 1012.1
20260504003226 9 133 3.2 6.4 0.00 0.03 0.03 84 1012.1
20260504002224 9 123 3.2 6.4 0.00 0.03 0.03 84 1012.0
20260504001726 9 119 1.6 4.8 0.00 0.03 0.03 85 1012.2
20260504001226 9 119 1.6 3.2 0.00 0.03 0.03 85 1012.2
20260504000723 9 119 0.0 3.2 0.00 0.03 0.03 85 1012.3
20260504000223 9 119 0.0 3.2 0.00 0.03 0.03 85 1012.2
20260504000219 9 119 0.0 0.0 0.00 0.03 0.03 85 1012.2
20260503235215 9 119 0.0 3.2 0.00 0.03 0.03 85 1012.1
20260503234945 9 119 1.6 3.2 0.00 0.03 0.03 85 1012.1
20260503234211 9 119 1.6 6.4 0.00 0.03 0.03 85 1012.1
20260503233711 9 119 3.2 6.4 0.00 0.03 0.03 85 1012.1
20260503233212 9 138 3.2 6.4 0.00 0.03 0.03 85 1012.1
20260503232706 9 140 1.6 6.4 0.00 0.03 0.03 85 1012.2
20260503232440 8 139 3.2 6.4 0.00 0.03 0.03 85 1012.3
20260503231707 8 140 4.8 11.3 0.00 0.03 0.03 85 1012.3
20260503231207 8 138 3.2 11.3 0.03 0.03 0.03 85 1012.4
20260503230706 8 146 1.6 8.0 0.03 0.03 0.03 86 1012.4
20260503230208 8 151 3.2 6.4 0.03 0.03 0.03 86 1012.4
20260503225702 8 151 4.8 6.4 0.03 0.03 0.03 86 1012.6
20260503225204 8 165 3.2 6.4 0.03 0.03 0.03 86 1012.9
20260503224702 8 198 3.2 6.4 0.03 0.03 0.03 86 1013.1
20260503224203 8 207 1.6 6.4 0.03 0.03 0.03 86 1013.1
20260503223936 8 253 1.6 4.8 0.03 0.03 0.03 85 1013.1
20260503223203 8 264 1.6 4.8 0.03 0.03 0.03 84 1013.3
20260503222659 9 265 1.6 6.4 0.03 0.03 0.03 82 1013.4
20260503222431 9 263 3.2 9.7 0.03 0.03 0.03 81 1014.1
20260503221930 9 259 3.2 9.7 0.03 0.03 0.03 79 1014.1
20260503221158 10 247 6.4 17.7 0.00 0.00 0.00 77 1014.3
20260503220700 10 299 8.0 20.9 0.00 0.00 0.00 74 1014.4
20260503220201 10 239 11.3 32.2 0.00 0.00 0.00 71 1014.4
20260503215655 11 297 12.9 32.2 0.00 0.00 0.00 67 1014.4